KOREASAT 6

Last updated on Tue Sep 22 2026 00:03:12 GMT+0000 (Coordinated Universal Time)

1 37265U 10070B 26264.51816885 .00000000 00000+0 00000+0 0 9991 2 37265 0.0252 155.8415 0002201 42.6004 148.3677 1.00269981 57738
UTC large
Height (km)
Speed (km/s)
/
Latitude / Longitude
Inclination (degrees)
Orbital Period (minutes)
Azimuth
Elevation
Range (km)
Doppler Factor

Next 0 passes for location: London (51.5072 / 0.1276)

No passes found over London.
KOREASAT 6